Location: Asheville, NC
(35.6000°N, 82.5500°W)
Time: 03:18:37
(UTC-04:00)

Vanguard 2 Rocket - All Passes

Search period start: 19 October 2017 00:00
Search period end: 29 October 2017 00:00
Orbit: 555 x 3327 km, 32.9° (Epoch: 18 October)

Date Brightness Start Highest point End Pass type
(mag) Time Alt. Az. Time Alt. Az. Time Alt. Az.
19 Oct - 12:34:32 10° SSW 12:38:55 32° SSE 12:45:30 10° E daylight
19 Oct - 14:45:28 10° WSW 14:51:50 73° S 15:03:28 10° E daylight
19 Oct - 16:57:44 10° W 17:06:38 71° S 17:22:36 10° ESE daylight
19 Oct - 19:11:09 10° W 19:22:42 46° SSW 19:40:11 10° SE visible
19 Oct - 21:28:32 10° WSW 21:39:19 21° SW 21:52:03 10° S visible
20 Oct - 11:37:06 10° S 11:40:11 18° SE 11:44:03 10° E daylight
20 Oct - 13:46:58 10° WSW 13:52:21 62° SSE 14:01:41 10° E daylight
20 Oct - 15:58:51 10° W 16:06:23 75° S 16:20:15 10° ESE daylight
20 Oct - 18:11:38 10° W 18:21:49 54° SSW 18:38:39 10° SE daylight
20 Oct - 20:26:55 10° W 20:38:12 28° SSW 20:52:59 10° SSE visible
21 Oct - 12:48:39 10° SW 12:53:12 45° SSE 13:00:24 10° E daylight
21 Oct - 15:00:09 10° W 15:06:30 75° S 15:18:07 10° E daylight
21 Oct - 17:12:29 10° W 17:21:16 61° SSW 17:36:44 10° ESE daylight
21 Oct - 19:26:26 10° W 19:37:12 35° SSW 19:52:48 10° SSE visible
21 Oct - 21:48:17 10° WSW 21:53:45 12° SW 21:59:39 10° SSW visible
22 Oct - 11:50:35 10° SSW 11:54:20 28° SSE 11:59:27 10° E daylight
22 Oct - 14:01:34 10° WSW 14:06:57 70° S 14:16:22 10° E daylight
22 Oct - 16:13:35 10° W 16:21:03 67° S 16:34:39 10° ESE daylight
22 Oct - 18:26:39 10° W 18:36:23 41° SSW 18:51:51 10° SE daylight
22 Oct - 20:43:55 10° WSW 20:52:41 18° SW 21:03:22 10° S visible
23 Oct - 10:53:04 10° S 10:55:36 16° SE 10:58:31 10° ESE daylight
23 Oct - 13:03:05 10° WSW 13:07:42 59° SSE 13:15:08 10° E daylight
23 Oct - 15:14:51 10° W 15:21:11 71° S 15:32:41 10° ESE daylight
23 Oct - 17:27:21 10° W 17:35:53 48° SSW 17:50:26 10° SE daylight
23 Oct - 19:42:24 10° WSW 19:51:46 24° SSW 20:04:24 10° SSE visible
24 Oct - 12:04:42 10° SW 12:08:42 42° SSE 12:14:23 10° E daylight
24 Oct - 14:16:14 10° W 14:21:37 72° S 14:31:01 10° E daylight
24 Oct - 16:28:22 10° W 16:35:43 55° SSW 16:48:45 10° ESE daylight
24 Oct - 18:42:05 10° W 18:51:01 30° SSW 19:04:17 10° SSE visible
25 Oct - 11:06:30 10° SSW 11:09:53 27° SSE 11:14:00 10° E daylight
25 Oct - 13:17:41 10° WSW 13:22:19 68° S 13:29:50 10° E daylight
25 Oct - 15:29:36 10° W 15:35:52 61° S 15:47:03 10° ESE daylight
25 Oct - 17:42:28 10° W 17:50:33 35° SSW 18:03:30 10° SE daylight
25 Oct - 20:00:10 10° WSW 20:06:26 14° SSW 20:13:57 10° S visible
26 Oct - 10:08:39 10° S 10:11:06 16° SSE 10:13:38 10° ESE daylight
26 Oct - 12:19:09 10° WSW 12:23:15 56° SSE 12:29:09 10° E daylight
26 Oct - 14:30:58 10° W 14:36:19 66° S 14:45:35 10° ESE daylight
26 Oct - 16:43:19 10° W 16:50:24 41° SSW 17:02:22 10° SE daylight
26 Oct - 18:58:27 10° WSW 19:05:44 19° SSW 19:15:29 10° S visible
27 Oct - 11:20:38 10° SW 11:24:20 40° SSE 11:28:57 10° E daylight
27 Oct - 13:32:23 10° W 13:37:00 68° S 13:44:29 10° E daylight
27 Oct - 15:44:26 10° W 15:50:32 48° SSW 16:01:07 10° SE daylight
27 Oct - 17:58:08 10° WSW 18:05:17 24° SSW 18:15:43 10° SSE daylight
28 Oct - 10:22:08 10° SW 10:25:30 27° SSE 10:29:05 10° E daylight
28 Oct - 12:33:46 10° WSW 12:37:53 65° S 12:43:51 10° E daylight
28 Oct - 14:45:44 10° W 14:51:00 54° SSW 14:59:56 10° ESE daylight
28 Oct - 16:58:35 10° W 17:05:08 29° SSW 17:15:19 10° SSE daylight
28 Oct - 19:18:52 10° SW 19:20:35 10° SSW 19:22:23 10° SSW visible
